CEB113 RPVM-RPLL

Flight info

Callsign CEB113
Flight time N/A
Altitude 38000
Route PARAO4P PARAO DCT ROX DCT LAIYA LAIYA5R
Aircraft A339/H-SADE1E2E3GHIJ3J5M1P2RWXY/LB2D1

Departure

Time 2026-04-30 13:01
Airport Mactan Cebu International Airport (RPVM)

Arrival

Time N/A
Airport Ninoy Aquino International Airport (RPLL)
Time Latitude Longitude Altitude Speed Heading
2026-04-30 12:42 10.31600 123.98024 44 ft 0 kts 314°
2026-04-30 12:47 10.31597 123.98027 44 ft 3 kts 314°
2026-04-30 12:47 10.31579 123.98046 43 ft 4 kts 314°
2026-04-30 12:47 10.31562 123.98062 41 ft 4 kts 300°
2026-04-30 12:47 10.31552 123.98080 41 ft 4 kts 255°
2026-04-30 12:48 10.31561 123.98101 39 ft 4 kts 225°
2026-04-30 12:48 10.31573 123.98114 41 ft 0 kts 225°
2026-04-30 12:54 10.31545 123.98084 43 ft 10 kts 225°
2026-04-30 12:54 10.31489 123.98029 45 ft 12 kts 225°
2026-04-30 12:55 10.31426 123.97965 44 ft 14 kts 225°
2026-04-30 12:55 10.31354 123.97898 44 ft 14 kts 209°
2026-04-30 12:55 10.31302 123.97928 43 ft 6 kts 130°
2026-04-30 12:55 10.31267 123.97967 45 ft 9 kts 137°
2026-04-30 12:56 10.31205 123.97976 45 ft 8 kts 207°
2026-04-30 12:56 10.31156 123.97937 44 ft 10 kts 220°
2026-04-30 12:56 10.31101 123.97887 43 ft 12 kts 224°
2026-04-30 12:56 10.31038 123.97825 44 ft 14 kts 224°
2026-04-30 12:57 10.30967 123.97755 41 ft 15 kts 224°
2026-04-30 12:57 10.30891 123.97679 42 ft 16 kts 225°
2026-04-30 12:57 10.30868 123.97655 44 ft 16 kts 225°
2026-04-30 12:57 10.30777 123.97562 42 ft 19 kts 226°
2026-04-30 12:58 10.30682 123.97463 45 ft 20 kts 223°
2026-04-30 12:58 10.30580 123.97367 45 ft 20 kts 223°
2026-04-30 12:58 10.30478 123.97264 45 ft 21 kts 225°
2026-04-30 12:58 10.30374 123.97157 45 ft 22 kts 225°
2026-04-30 12:59 10.30265 123.97047 44 ft 22 kts 224°
2026-04-30 12:59 10.30153 123.96934 44 ft 23 kts 225°
2026-04-30 12:59 10.30038 123.96821 44 ft 23 kts 224°
2026-04-30 12:59 10.29918 123.96712 43 ft 22 kts 209°
2026-04-30 13:00 10.29885 123.96717 44 ft 6 kts 154°
2026-04-30 13:00 10.29837 123.96751 43 ft 10 kts 142°
2026-04-30 13:00 10.29780 123.96806 42 ft 13 kts 133°
2026-04-30 13:00 10.29733 123.96891 40 ft 15 kts 91°
2026-04-30 13:01 10.29793 123.96978 39 ft 21 kts 43°
2026-04-30 13:01 10.30128 123.97313 40 ft 115 kts 44°
2026-04-30 13:01 10.30850 123.98036 156 ft 177 kts 45°
2026-04-30 13:01 10.31739 123.99001 1068 ft 188 kts 48°
2026-04-30 13:02 10.32560 124.00052 1980 ft 201 kts 50°
2026-04-30 13:02 10.33527 124.01190 2598 ft 223 kts 44°
2026-04-30 13:02 10.34768 124.02234 3222 ft 242 kts 28°
2026-04-30 13:02 10.36429 124.02717 3790 ft 259 kts
2026-04-30 13:03 10.38249 124.02375 4237 ft 278 kts 335°
2026-04-30 13:03 10.39907 124.01257 4631 ft 298 kts 319°
2026-04-30 13:03 10.41490 123.99785 4956 ft 319 kts 316°
2026-04-30 13:03 10.43171 123.98257 5227 ft 340 kts 319°
2026-04-30 13:04 10.45016 123.96749 5945 ft 344 kts 321°
2026-04-30 13:04 10.46382 123.95702 6507 ft 346 kts 322°
2026-04-30 13:04 10.48067 123.94456 7126 ft 350 kts 323°
2026-04-30 13:04 10.50063 123.93014 7849 ft 354 kts 324°
2026-04-30 13:05 10.52115 123.91540 8588 ft 358 kts 323°
2026-04-30 13:05 10.54159 123.90073 9316 ft 362 kts 324°
2026-04-30 13:05 10.56231 123.88583 10022 ft 367 kts 324°
2026-04-30 13:06 10.60072 123.85127 10957 ft 376 kts 313°
2026-04-30 13:06 10.61689 123.82949 11147 ft 394 kts 307°
2026-04-30 13:06 10.63301 123.80670 11683 ft 399 kts 307°
2026-04-30 13:06 10.64899 123.78436 12265 ft 402 kts 308°
2026-04-30 13:07 10.66558 123.76135 12860 ft 405 kts 308°
2026-04-30 13:07 10.68218 123.73838 13449 ft 409 kts 308°
2026-04-30 13:07 10.69907 123.71499 14024 ft 412 kts 308°
2026-04-30 13:07 10.71608 123.69138 14559 ft 416 kts 308°
2026-04-30 13:08 10.73322 123.66759 15108 ft 419 kts 308°
2026-04-30 13:08 10.75043 123.64366 15665 ft 423 kts 307°
2026-04-30 13:08 10.76798 123.61929 16210 ft 426 kts 307°
2026-04-30 13:08 10.78548 123.59497 16772 ft 430 kts 307°
2026-04-30 13:09 10.80315 123.57043 17335 ft 434 kts 307°
2026-04-30 13:09 10.82114 123.54541 17901 ft 438 kts 307°
2026-04-30 13:09 10.83920 123.52031 18436 ft 442 kts 307°
2026-04-30 13:09 10.85745 123.49497 18955 ft 445 kts 307°
2026-04-30 13:10 10.87576 123.46954 19464 ft 448 kts 307°
2026-04-30 13:10 10.89423 123.44383 19991 ft 452 kts 307°
2026-04-30 13:10 10.91288 123.41806 20486 ft 455 kts 309°
2026-04-30 13:10 10.93382 123.39384 20988 ft 457 kts 316°
2026-04-30 13:11 10.95704 123.37163 21446 ft 460 kts 318°
2026-04-30 13:11 10.98047 123.34933 21929 ft 463 kts 318°
2026-04-30 13:11 11.00403 123.32677 22388 ft 466 kts 318°
2026-04-30 13:11 11.02767 123.30405 22834 ft 469 kts 317°
2026-04-30 13:12 11.05146 123.28116 23267 ft 472 kts 317°
2026-04-30 13:12 11.07541 123.25811 23671 ft 475 kts 317°
2026-04-30 13:12 11.09951 123.23492 24040 ft 478 kts 317°
2026-04-30 13:13 11.14799 123.18827 24744 ft 482 kts 317°
2026-04-30 13:13 11.17256 123.16462 24963 ft 488 kts 317°
2026-04-30 13:13 11.22282 123.11624 25071 ft 506 kts 317°
2026-04-30 13:14 11.24855 123.09145 25074 ft 514 kts 317°
2026-04-30 13:14 11.27431 123.06663 25068 ft 519 kts 317°
2026-04-30 13:14 11.32695 123.01587 25071 ft 523 kts 317°
2026-04-30 13:15 11.35342 122.99034 25073 ft 524 kts 317°
2026-04-30 13:15 11.40608 122.93952 25075 ft 514 kts 317°
2026-04-30 13:15 11.43189 122.91460 25070 ft 508 kts 317°
2026-04-30 13:16 11.45742 122.88995 25070 ft 505 kts 317°
2026-04-30 13:16 11.48290 122.86535 25072 ft 502 kts 317°
2026-04-30 13:16 11.50788 122.84123 25077 ft 500 kts 317°
2026-04-30 13:17 11.55810 122.79269 25068 ft 496 kts 317°
2026-04-30 13:17 11.58313 122.76856 25070 ft 494 kts 318°
2026-04-30 13:17 11.63731 122.72747 25069 ft 489 kts 327°
2026-04-30 13:18 11.66578 122.70820 25064 ft 489 kts 327°
2026-04-30 13:18 11.72218 122.66968 25062 ft 487 kts 327°
2026-04-30 13:18 11.75029 122.65045 25057 ft 486 kts 327°
2026-04-30 13:19 11.77768 122.63172 25059 ft 486 kts 327°
2026-04-30 13:19 11.80645 122.61205 25058 ft 485 kts 327°
2026-04-30 13:19 11.83447 122.59288 25061 ft 485 kts 327°
2026-04-30 13:19 11.86205 122.57400 25059 ft 485 kts 327°
2026-04-30 13:20 11.89044 122.55458 25060 ft 484 kts 327°
2026-04-30 13:20 11.91780 122.53585 25064 ft 484 kts 327°
2026-04-30 13:20 11.94621 122.51640 25056 ft 484 kts 327°
2026-04-30 13:20 11.97401 122.49736 25057 ft 484 kts 327°
2026-04-30 13:21 12.00143 122.47858 25047 ft 484 kts 327°
2026-04-30 13:21 12.02964 122.45926 25050 ft 484 kts 327°
2026-04-30 13:21 12.05811 122.43975 25044 ft 484 kts 327°
2026-04-30 13:22 12.11318 122.40199 25070 ft 483 kts 327°
2026-04-30 13:22 12.14136 122.38267 25061 ft 483 kts 327°
2026-04-30 13:22 12.19680 122.34464 25044 ft 483 kts 327°
2026-04-30 13:23 12.22482 122.32540 25061 ft 483 kts 327°
2026-04-30 13:23 12.28005 122.28748 25107 ft 481 kts 327°
2026-04-30 13:24 12.33612 122.24896 25106 ft 481 kts 327°
2026-04-30 13:24 12.39167 122.21077 25101 ft 481 kts 327°
2026-04-30 13:25 12.44703 122.17270 25106 ft 481 kts 327°
2026-04-30 13:25 12.50280 122.13432 25103 ft 481 kts 327°
2026-04-30 13:26 12.58615 122.07692 25106 ft 481 kts 326°
2026-04-30 13:26 12.64098 122.03914 25113 ft 481 kts 326°
2026-04-30 13:27 12.69724 122.00038 25107 ft 481 kts 326°
2026-04-30 13:28 12.78036 121.94305 25062 ft 482 kts 326°
2026-04-30 13:28 12.83629 121.90444 25054 ft 482 kts 326°
2026-04-30 13:28 12.86398 121.88532 25059 ft 482 kts 326°
2026-04-30 13:29 12.91954 121.84693 25077 ft 482 kts 326°
2026-04-30 13:29 12.97538 121.80834 25095 ft 481 kts 326°
2026-04-30 13:30 13.05753 121.75151 25080 ft 482 kts 326°
2026-04-30 13:31 13.11311 121.71304 25098 ft 482 kts 326°
2026-04-30 13:31 13.19652 121.65526 25081 ft 483 kts 326°
2026-04-30 13:32 13.25269 121.61633 25093 ft 497 kts 326°
2026-04-30 13:32 13.31113 121.57580 25078 ft 513 kts 326°
2026-04-30 13:33 13.36957 121.53524 25083 ft 493 kts 326°
2026-04-30 13:33 13.42300 121.49814 25095 ft 444 kts 326°
2026-04-30 13:34 13.44864 121.48032 25081 ft 447 kts 326°
2026-04-30 13:34 13.51763 121.43239 25098 ft 452 kts 326°
2026-04-30 13:35 13.54373 121.41425 25098 ft 453 kts 326°
2026-04-30 13:35 13.59601 121.37749 25086 ft 454 kts 324°
2026-04-30 13:36 13.64667 121.33942 25092 ft 454 kts 323°
2026-04-30 13:36 13.67208 121.32025 25100 ft 454 kts 323°
2026-04-30 13:36 13.72340 121.28180 25087 ft 454 kts 323°
2026-04-30 13:37 13.74887 121.26280 25096 ft 453 kts 323°
2026-04-30 13:37 13.79982 121.22480 25100 ft 452 kts 323°
2026-04-30 13:38 13.85068 121.18685 25087 ft 451 kts 323°
2026-04-30 13:38 13.87614 121.16784 25102 ft 451 kts 323°
2026-04-30 13:38 13.92512 121.13131 25086 ft 415 kts 324°
2026-04-30 13:39 13.97795 121.11040 25095 ft 414 kts 351°
2026-04-30 13:39 14.03509 121.11634 25082 ft 418 kts 21°
2026-04-30 13:40 14.06056 121.13050 25096 ft 418 kts 37°
2026-04-30 13:40 14.08193 121.15073 25101 ft 417 kts 47°
2026-04-30 13:40 14.10180 121.17242 25078 ft 418 kts 47°
2026-04-30 13:40 14.12173 121.19424 25078 ft 417 kts 47°
2026-04-30 13:41 14.14162 121.21598 25097 ft 417 kts 47°
2026-04-30 13:41 14.16081 121.23697 25098 ft 417 kts 47°
2026-04-30 13:41 14.18076 121.25879 25093 ft 419 kts 47°
2026-04-30 13:41 14.20070 121.28057 25072 ft 416 kts 47°
2026-04-30 13:42 14.22032 121.30199 25005 ft 405 kts 47°
2026-04-30 13:42 14.23930 121.32271 24887 ft 390 kts 47°
2026-04-30 13:42 14.27792 121.35947 23956 ft 373 kts 30°
2026-04-30 13:43 14.30209 121.36879 23282 ft 370 kts 11°
2026-04-30 13:43 14.32760 121.36943 22526 ft 368 kts 352°
2026-04-30 13:43 14.35178 121.36135 21793 ft 365 kts 332°
2026-04-30 13:43 14.37324 121.34762 21049 ft 362 kts 327°
2026-04-30 13:44 14.39430 121.33360 20414 ft 356 kts 327°
2026-04-30 13:44 14.41265 121.31674 19655 ft 355 kts 307°
2026-04-30 13:44 14.42418 121.29453 18973 ft 350 kts 286°
2026-04-30 13:44 14.42740 121.26998 18309 ft 345 kts 265°
2026-04-30 13:45 14.41066 121.22553 16814 ft 334 kts 237°
2026-04-30 13:45 14.39873 121.20511 16091 ft 331 kts 237°
2026-04-30 13:45 14.38692 121.18495 15400 ft 328 kts 237°
2026-04-30 13:46 14.37506 121.16478 14696 ft 326 kts 237°
2026-04-30 13:46 14.36335 121.14497 14047 ft 322 kts 237°
2026-04-30 13:46 14.35169 121.12534 13312 ft 320 kts 237°
2026-04-30 13:46 14.34013 121.10586 12533 ft 318 kts 237°
2026-04-30 13:47 14.32869 121.08657 11806 ft 314 kts 237°
2026-04-30 13:47 14.31736 121.06744 11082 ft 311 kts 237°
2026-04-30 13:47 14.30616 121.04847 10379 ft 308 kts 237°
2026-04-30 13:47 14.29507 121.02971 9642 ft 306 kts 237°
2026-04-30 13:48 14.28401 121.01107 8853 ft 303 kts 237°
2026-04-30 13:48 14.27297 120.99265 8087 ft 301 kts 237°
2026-04-30 13:48 14.26207 120.97466 7660 ft 287 kts 237°
2026-04-30 13:48 14.25191 120.95798 7458 ft 263 kts 237°
2026-04-30 13:49 14.24238 120.94245 7055 ft 253 kts 237°
2026-04-30 13:49 14.23301 120.92731 6572 ft 249 kts 237°
2026-04-30 13:49 14.22380 120.91242 5999 ft 250 kts 237°
2026-04-30 13:49 14.21450 120.89748 5501 ft 247 kts 237°
2026-04-30 13:50 14.20534 120.88253 5166 ft 238 kts 237°
2026-04-30 13:50 14.19022 120.85773 5046 ft 244 kts 237°
2026-04-30 13:50 14.18115 120.84276 5051 ft 245 kts 237°
2026-04-30 13:51 14.17213 120.82792 5046 ft 244 kts 237°
2026-04-30 13:51 14.16310 120.81310 5047 ft 244 kts 237°
2026-04-30 13:51 14.15408 120.79830 5052 ft 244 kts 237°
2026-04-30 13:51 14.14509 120.78349 5050 ft 244 kts 237°
2026-04-30 13:52 14.13603 120.76865 5050 ft 244 kts 237°
2026-04-30 13:52 14.12713 120.75382 5053 ft 243 kts 239°
2026-04-30 13:52 14.12241 120.73716 5047 ft 245 kts 269°
2026-04-30 13:52 14.12564 120.72032 5058 ft 239 kts 296°
2026-04-30 13:53 14.13274 120.70473 5047 ft 240 kts 297°
2026-04-30 13:53 14.13974 120.68932 5045 ft 240 kts 297°
2026-04-30 13:53 14.14440 120.67898 5046 ft 241 kts 297°
2026-04-30 13:53 14.14757 120.67191 5045 ft 240 kts 297°
2026-04-30 13:54 14.15600 120.65733 5048 ft 238 kts 316°
2026-04-30 13:54 14.16940 120.64840 5047 ft 231 kts 346°
2026-04-30 13:54 14.18505 120.64755 5048 ft 225 kts 15°
2026-04-30 13:54 14.19983 120.65251 5052 ft 222 kts 24°
2026-04-30 13:55 14.21416 120.65823 5054 ft 222 kts 23°
2026-04-30 13:55 14.22876 120.66357 5043 ft 222 kts 22°
2026-04-30 13:55 14.24204 120.67158 5039 ft 223 kts 38°
2026-04-30 13:55 14.25431 120.68118 5039 ft 219 kts 38°
2026-04-30 13:56 14.26842 120.68721 5052 ft 226 kts 12°
2026-04-30 13:56 14.28407 120.68903 5047 ft 226 kts
2026-04-30 13:56 14.29970 120.68998 5045 ft 224 kts
2026-04-30 13:56 14.31531 120.69088 5045 ft 225 kts
2026-04-30 13:57 14.32993 120.69592 5044 ft 223 kts 35°
2026-04-30 13:57 14.33987 120.70734 5049 ft 221 kts 60°
2026-04-30 13:57 14.34694 120.72139 5041 ft 220 kts 64°
2026-04-30 13:57 14.35357 120.73566 5037 ft 221 kts 64°
2026-04-30 13:58 14.36038 120.74982 5034 ft 221 kts 63°
2026-04-30 13:58 14.37512 120.77766 4807 ft 220 kts 60°
2026-04-30 13:58 14.38255 120.79112 4640 ft 218 kts 61°
2026-04-30 13:59 14.38987 120.80440 4393 ft 207 kts 61°
2026-04-30 13:59 14.39680 120.81694 4148 ft 198 kts 61°
2026-04-30 13:59 14.40344 120.82899 3922 ft 191 kts 61°
2026-04-30 13:59 14.40966 120.84025 3695 ft 186 kts 62°
2026-04-30 14:00 14.41148 120.84356 3627 ft 185 kts 62°